Regional Weather Roundup
Issued by NWS

Home | Current Version | Previous Version | Graphics & Text | Print | Product List | Glossary On
Versions: 1 2 3 4 5 6 7 8 9 10 11 12 13 14 15 16 17 18 19 20 21 22 23 24 25 26 27 28 29 30 31 32 33 34 35 36 37 38 39 40 41 42 43 44 45 46 47 48 49 50
930
ASUS43 KLSX 231857
RWRMO

WEATHER SUMMARY FOR MISSOURI
NATIONAL WEATHER SERVICE SPRINGFIELD MO
100 PM CST MON JAN 23 2017

NOTE: "FAIR" INDICATES FEW OR NO CLOUDS BELOW 12,000 FEET WITH NO
       SIGNIFICANT WEATHER AND/OR OBSTRUCTIONS TO VISIBILITY.
       CURRENT SKY AND/OR WEATHER CONDITIONS ARE NOT AVAILABLE FOR
       CHILLICOTHE AND FARMINGTON.

MOZ001>031-035>038-043-044-053-054-232000-
...NORTHERN AND WESTERN MISSOURI...

CITY           SKY/WX    TMP DP  RH WIND       PRES   REMARKS
KANSAS CTY INT CLOUDY    33  29  85 N3        29.88F FOG
LEE`S SUMMIT   PTSUNNY   37  32  82 NW3       29.88F
ST JOSEPH      CLOUDY    36  32  85 N6        29.89F
CHILLICOTHE      N/A     35  30  82 NW5       29.90F

$$
MOZ066>068-077>081-088>096-101>105-232000-
...SOUTHWEST MISSOURI...

CITY           SKY/WX    TMP DP  RH WIND       PRES   REMARKS
SPRINGFIELD    PTSUNNY   45  37  73 W7        29.86F
JOPLIN         SUNNY     47  37  68 VRB3      29.89F
BRANSON        MOSUNNY   45  36  70 W6        29.87F

$$
MOZ032>034-039>042-045>050-055>058-069>072-232000-
...CENTRAL MISSOURI...

CITY           SKY/WX    TMP DP  RH WIND       PRES   REMARKS
COLUMBIA       NOT AVBL
JEFFERSON CITY CLOUDY    42  34  73 NW8       29.87F
ROLLA          CLOUDY    42  34  73 NW7       29.83F
SEDALIA        CLOUDY    38  33  82 W12       29.89F
WARRENSBURG    CLOUDY    36  32  87 W8        29.91S WCI  29
OSAGE BEACH    MOSUNNY   43  34  70 W8        29.87F

$$
MOZ051-052-059>065-232000-
...EAST CENTRAL MISSOURI...

CITY           SKY/WX    TMP DP  RH WIND       PRES   REMARKS
ST LOUIS INTL  CLOUDY    43  35  73 NW14      29.82F

$$
MOZ072>076-082>087-097>100-106>115-232000-
...SOUTH CENTRAL AND SOUTHEAST MISSOURI...

CITY           SKY/WX    TMP DP  RH WIND       PRES   REMARKS
CAPE GIRARDEAU CLOUDY    45  35  68 N17       29.79S
POPLAR BLUFF   MOSUNNY   50  37  61 NW10      29.80S
WEST PLAINS    PTSUNNY   49  36  61 NW13      29.84F

$$



USA.gov is the U.S. government's official web portal to all federal, state and local government web resources and services.